Cambridge Bay, Nunavut

12:11 AM MST on December 08, 2016 (GMT -0700)
Cambridge Bay

Weather History for CYCB - December, 2012

Change the Weather History Date:

Tuesday, December 4, 2012

  Actual Average Record
Temperature  
Mean Temperature -26 °F -  
Max Temperature -20 °F -16 °F 19 °F (2016)
Min Temperature -30 °F -29 °F -34 °F (2000)
Degree Days  
Heating Degree Days 90    
Moisture  
Dew Point -34 °F    
Average Humidity 63    
Maximum Humidity 76    
Minimum Humidity 45    
Precipitation  
Precipitation 0.00 in 0.01 in - ()
Sea Level Pressure  
Sea Level Pressure 30.30 in    
Wind  
Wind Speed 2 mph ()    
Max Wind Speed 6 mph    
Max Gust Speed -    
Visibility 6.8 miles    
Events Snow    
Averages and records for this station are not official NWS values.
T = Trace of Precipitation, MM = Missing Value Source: Averaged Metar Reports

Daily Weather History Graph

Daily Weather History Graph

Search for Another Location

Airport or City:

Trip Planner

Search our weather history database for the weather conditions in past years. The results will help you decide how hot, cold, wet, or windy it might be!

Date:

Astronomy

Dec. 04, 2012 Rise Set
Actual Time 11:18 AM MST 12:23 PM MST
Civil Twilight 9:08 AM MST 2:32 PM MST
Nautical Twilight 7:36 AM MST 4:04 PM MST
Astronomical Twilight 6:23 AM MST 5:18 PM MST
Moon 9:25 PM MST (12/4) 12:14 PM MST (12/4)
Length of Visible Light 5h 23m
Length of Day
1h 04m
Waning Gibbous, 69% of the Moon is Illuminated
Dec 4
Waning Gibbous
Dec 6
Last Quarter
Dec 13
New
Dec 19
First Quarter
Dec 28
Full

Hourly Weather History & Observations

Time (MST) Temp. Windchill Dew Point Humidity Pressure Visibility Wind Dir Wind Speed Gust Speed Precip Events Conditions
12:00 AM -25.6 °F -37.1 °F -34.6 °F 63% 30.35 in 15.0 mi NNW 3.5 mph - N/A   Partly Cloudy
12:25 AM - - - N/A% - 12.0 mi NNW 4.6 mph - N/A   Partly Cloudy
1:00 AM -29.2 °F -46.2 °F -36.4 °F 68% 30.35 in 12.0 mi NW 5.8 mph - N/A   Partly Cloudy
2:00 AM -27.4 °F -39.2 °F -36.4 °F 62% 30.35 in 12.0 mi WNW 3.5 mph - N/A   Partly Cloudy
3:00 AM -27.4 °F - -34.6 °F 69% 30.35 in 12.0 mi WNW 2.3 mph - N/A   Partly Cloudy
4:00 AM -27.4 °F - -36.4 °F 62% 30.35 in 12.0 mi Calm Calm - N/A   Partly Cloudy
4:49 AM - - - N/A% - 12.0 mi Calm Calm - N/A   Scattered Clouds
5:00 AM -27 °F - -36 °F 45% 30.33 in 12 mi Calm Calm - - Snow Snow
5:00 AM -27.4 °F - -36.4 °F 62% 30.33 in 12.0 mi Calm Calm - N/A   Scattered Clouds
6:00 AM -25.6 °F - -34.6 °F 63% 30.32 in 12.0 mi Calm Calm - N/A   Partly Cloudy
7:00 AM -29.2 °F -44.0 °F -40.0 °F 56% 30.31 in 12.0 mi NNE 4.6 mph - N/A   Partly Cloudy
8:00 AM -29.2 °F -41.2 °F -36.4 °F 68% 30.30 in 12.0 mi NE 3.5 mph - N/A   Partly Cloudy
9:00 AM -27.4 °F - -36.4 °F 62% 30.30 in 12.0 mi NNE 2.3 mph - N/A   Mostly Cloudy
10:00 AM -27.4 °F - -36.4 °F 62% 30.30 in 12.0 mi NNE 2.3 mph - N/A   Mostly Cloudy
11:00 AM -26 °F - -34 °F 49% 30.30 in 6 mi Calm Calm - - Snow Snow
11:00 AM -25.6 °F - -34.6 °F 63% 30.30 in 6.0 mi Calm Calm - N/A   Ice Crystals
12:00 PM -25.6 °F - -34.6 °F 63% 30.30 in 10.0 mi Calm Calm - N/A   Mostly Cloudy
12:35 PM - - - N/A% - 10.0 mi NNE 2.3 mph - N/A   Mostly Cloudy
1:00 PM -25.6 °F -37.1 °F -34.6 °F 63% 30.30 in 10.0 mi NE 3.5 mph - N/A   Mostly Cloudy
1:38 PM - - - N/A% - 10.0 mi NE 2.3 mph - N/A   Mostly Cloudy
2:00 PM -25.6 °F - -32.8 °F 69% 30.30 in 12.0 mi Calm Calm - N/A   Mostly Cloudy
2:54 PM - - - N/A% - 10.0 mi NE 3.5 mph - N/A   Unknown
3:00 PM -25.6 °F -37.1 °F -34.6 °F 63% 30.30 in 10.0 mi NNE 3.5 mph - N/A Snow Light Snow
3:33 PM - - - N/A% - 1.5 mi NE 2.3 mph - N/A   Mostly Cloudy
3:55 PM - - - N/A% - 1.0 mi NNE 2.3 mph - N/A   Mostly Cloudy
4:00 PM -25.6 °F - -32.8 °F 69% 30.29 in 1.0 mi NNE 2.3 mph - N/A   Mostly Cloudy
4:40 PM - - - N/A% - 1.5 mi Calm Calm - N/A   Mostly Cloudy
5:00 PM -25 °F - -33 °F 47% 30.28 in 1 mi Calm Calm - -   Mist
5:00 PM -23.8 °F - -32.8 °F 63% 30.28 in 1.5 mi Calm Calm - N/A   Mostly Cloudy
6:00 PM -23.8 °F - -31.0 °F 69% 30.27 in 1.5 mi Calm Calm - N/A   Mostly Cloudy
6:28 PM - - - N/A% - 2.0 mi Calm Calm - N/A   Mostly Cloudy
7:00 PM -23.8 °F - -31.0 °F 69% 30.27 in 2.5 mi Calm Calm - N/A Snow Light Snow
8:00 PM -22.0 °F - -31.0 °F 63% 30.27 in 2.5 mi Calm Calm - N/A Snow Light Snow
8:39 PM - - - N/A% - 3.0 mi Calm Calm - N/A   Mostly Cloudy
8:53 PM - - - N/A% - 3.0 mi Calm Calm - N/A   Mostly Cloudy
9:00 PM -22.0 °F - -29.2 °F 69% 30.27 in 3.0 mi Calm Calm - N/A Snow Light Snow
9:29 PM - - - N/A% - 0.8 mi Calm Calm - N/A   Ice Crystals
10:00 PM -22.0 °F - -27.4 °F 76% 30.26 in 0.8 mi Calm Calm - N/A   Ice Crystals
10:26 PM - - - N/A% - 1.2 mi Calm Calm - N/A   Mostly Cloudy
11:00 PM -21 °F - -28 °F 56% 30.26 in 1 mi Calm Calm - - Snow Light Snow
11:00 PM -20.2 °F - -27.4 °F 69% 30.26 in 1.2 mi Calm Calm - N/A   Mostly Cloudy
11:08 PM - - - N/A% - 1.5 mi Calm Calm - N/A Snow Light Snow Grains